Theta_e
325 323 320 320 320 319 319 319 318 322 330 335 337 338 341 344 344 343 344 344 344 344 343 342 341 339 338 337 337 337 336 336 336 336 338 340 341 342 343 343 344 344 345 347 346 346 348 349 350 351 351 351 351 352 351 351 350 350 352 353 354 353 352 352 353 354 354 353 353 353 351 348 344 342 341 341 340 337 335 335 335 334 337 342 344 343 341
322 323 321 320 320 320 320 322 319 322 334 340 339 341 343 345 345 343 342 343 343 342 341 340 339 337 337 336 336 336 335 335 334 334 336 337 338 339 340 341 342 343 343 344 345 346 347 348 349 349 349 350 350 351 351 351 350 350 351 352 353 354 353 353 353 353 352 352 351 352 354 353 351 349 347 347 347 344 339 336 336 336 339 344 347 346 344
321 323 324 320 320 321 321 323 321 320 330 340 341 341 341 342 343 341 341 343 342 339 338 337 337 336 336 335 335 334 334 334 333 333 333 334 335 337 339 340 341 341 341 342 343 343 344 345 347 347 347 348 348 349 350 349 349 349 350 350 351 352 353 354 353 352 352 352 351 350 351 352 352 353 352 353 353 351 348 343 340 339 341 345 348 349 347
320 319 325 323 322 323 322 323 321 317 323 335 341 341 341 342 342 341 342 344 342 338 336 336 335 335 334 333 333 333 332 332 332 332 332 332 333 335 337 339 339 339 340 341 341 340 339 340 343 345 345 345 346 347 347 348 348 349 350 351 351 351 351 352 352 352 352 352 352 352 351 351 352 352 352 353 354 354 353 351 348 346 345 346 348 349 349
322 318 326 329 324 323 324 322 319 318 323 334 341 340 339 339 340 342 343 342 340 337 336 335 334 333 332 331 331 331 331 330 330 330 330 332 332 332 333 335 337 338 339 340 340 338 336 334 335 338 340 342 343 344 345 347 348 349 349 351 351 351 351 351 351 352 352 351 351 351 351 351 351 351 350 350 352 353 353 353 352 351 350 349 349 349 348
322 320 329 334 329 325 325 322 319 323 330 335 337 336 336 336 338 339 340 338 336 336 334 334 333 331 331 331 330 330 330 329 328 328 328 330 331 331 330 331 335 337 338 338 338 337 335 332 329 329 332 336 339 340 341 343 345 346 347 348 348 349 350 351 351 351 351 351 351 350 350 350 350 350 350 349 350 351 351 352 352 352 352 351 350 350 348
321 327 335 334 330 329 328 324 322 326 331 331 332 332 331 333 336 335 335 335 334 333 332 332 332 330 330 330 330 329 329 327 326 326 325 326 328 329 329 329 332 336 337 337 337 336 336 333 328 325 325 327 330 333 335 338 340 342 344 345 345 345 346 348 349 350 350 351 352 351 351 351 351 351 351 350 350 351 351 351 351 351 351 351 351 351 350
317 325 332 330 329 330 329 326 322 323 325 328 335 336 330 330 335 335 334 333 330 330 330 330 330 330 329 329 328 328 327 325 323 323 324 324 324 326 328 327 328 331 332 333 334 334 334 332 328 324 322 321 322 325 329 332 334 336 339 341 342 342 342 343 344 346 347 348 349 350 351 352 352 352 352 351 351 351 351 351 351 351 351 351 351 350 349
318 323 327 327 327 325 328 330 324 320 319 320 332 339 331 328 333 333 332 332 328 327 328 328 327 328 327 326 326 326 325 323 322 321 322 322 322 323 325 326 326 326 326 328 329 330 329 328 327 324 321 318 317 319 322 326 327 328 330 333 335 335 335 336 338 339 341 344 347 348 348 349 351 352 351 351 351 351 351 351 351 351 352 351 351 351 350
327 331 328 324 323 324 330 335 326 319 317 317 328 338 332 327 330 331 330 331 329 326 325 326 325 326 327 326 324 324 323 322 321 321 320 320 321 322 324 326 326 326 325 325 325 324 324 324 323 322 320 317 315 315 317 320 323 324 325 328 329 329 329 329 331 331 333 336 340 341 341 342 345 348 349 349 350 351 351 352 352 351 352 352 351 350 350
330 333 328 323 324 325 330 335 327 318 317 319 330 340 334 327 328 330 329 330 329 326 324 323 323 324 327 326 323 321 321 321 321 321 320 319 320 321 323 325 325 325 324 323 323 322 322 321 320 319 317 315 315 315 315 315 318 321 323 323 324 325 326 328 329 329 329 331 333 334 335 336 338 341 344 346 348 349 350 351 351 351 351 351 351 351 350
332 332 326 324 328 326 328 331 325 318 317 319 330 340 335 327 328 330 329 328 329 327 325 325 327 326 325 324 321 319 320 321 320 321 320 319 320 320 320 321 321 321 321 321 321 320 320 320 319 318 317 315 314 315 315 315 315 317 319 319 318 320 322 324 327 329 331 331 331 331 332 333 334 335 336 339 343 346 348 349 349 350 350 350 351 352 351
328 328 322 322 328 328 326 326 322 318 317 319 327 334 331 327 328 330 329 328 328 327 326 329 331 328 324 322 320 319 320 320 320 320 320 320 320 319 320 319 319 319 319 319 319 319 318 318 318 317 316 315 313 314 314 315 314 315 317 318 317 316 316 317 319 321 324 326 328 329 329 330 332 332 332 333 337 339 342 344 345 346 348 348 350 351 351
321 327 325 323 326 326 321 320 319 317 317 320 326 326 324 326 330 329 328 328 327 325 326 328 329 327 324 322 320 320 321 321 320 320 320 320 320 319 319 319 319 319 319 318 318 317 317 316 315 315 315 314 314 314 313 314 314 313 314 315 316 316 316 316 315 314 315 317 320 323 324 323 325 328 328 330 332 334 336 338 339 340 342 344 346 347 348
320 328 327 324 327 325 319 320 321 320 321 322 324 321 319 324 329 329 328 327 325 326 327 326 325 324 322 320 319 320 321 321 321 320 320 320 320 319 319 319 318 318 318 317 316 316 315 314 313 313 314 314 314 314 314 315 314 312 312 312 313 314 315 315 313 312 312 312 313 316 318 317 319 324 326 328 332 335 337 338 337 336 338 340 342 344 346
322 326 326 324 325 323 321 321 321 322 322 321 320 319 318 321 325 328 328 328 327 327 327 324 322 321 319 319 319 319 319 319 319 320 320 320 319 319 319 318 318 318 317 316 315 314 313 313 312 311 312 313 313 313 314 314 313 312 311 310 311 311 311 311 311 310 311 311 311 313 316 315 320 328 331 333 335 337 338 339 338 336 337 340 342 344 345
321 325 328 325 321 320 321 322 321 321 321 319 318 320 320 320 323 326 327 328 327 327 325 323 321 320 319 319 319 319 319 319 319 319 319 319 320 319 319 319 318 318 317 316 314 313 312 312 311 311 311 311 311 311 311 312 312 311 311 310 310 310 309 309 309 309 310 310 311 315 318 319 324 332 335 336 337 337 337 339 340 338 338 340 342 342 342
318 319 322 321 320 320 321 321 321 320 319 319 319 320 320 321 323 325 327 327 326 324 322 321 320 319 319 319 319 320 320 319 319 319 319 319 319 319 318 317 316 315 314 313 313 313 312 312 311 311 311 311 311 311 311 311 311 310 310 309 309 309 308 308 308 308 309 310 312 317 322 325 328 333 334 335 335 335 336 339 340 338 338 339 338 338 337
318 318 320 319 319 320 319 318 320 319 319 319 319 319 320 321 322 324 325 325 323 321 320 320 319 319 319 319 319 319 319 319 319 319 319 318 318 317 316 315 314 314 313 313 313 312 312 312 311 311 311 312 314 314 314 313 312 311 310 309 309 309 308 308 308 308 308 309 310 315 321 326 330 331 331 332 333 334 335 337 338 337 336 335 334 334 332
320 318 319 318 318 319 318 318 318 318 318 319 319 318 319 320 321 322 322 321 320 320 320 320 320 319 320 319 319 319 319 319 319 318 318 318 317 316 315 314 314 314 313 313 313 312 312 312 311 310 311 313 314 315 315 314 314 312 311 310 310 310 309 309 308 308 308 308 308 310 314 320 325 329 330 330 330 331 332 333 333 333 332 331 331 330 328
325 321 318 318 319 320 319 318 318 317 317 318 318 318 318 318 319 320 319 319 319 319 319 320 320 320 320 320 319 319 318 318 318 318 317 317 316 315 315 314 313 313 313 313 312 312 312 312 311 310 311 312 313 313 313 313 313 312 311 310 310 310 310 310 310 309 308 308 308 309 309 311 315 321 325 327 328 329 329 329 329 329 328 327 326 325 324
330 325 320 319 320 321 319 318 318 318 317 317 317 317 317 317 318 318 318 318 318 318 319 319 319 319 319 318 318 318 318 318 318 317 317 316 315 314 314 314 313 313 312 312 312 312 311 311 311 311 311 311 311 311 311 311 311 311 311 310 310 310 311 311 312 311 311 310 309 309 309 309 309 311 315 319 323 325 327 327 327 327 326 325 324 323 324
326 324 320 318 319 320 319 318 318 318 317 317 317 316 316 316 316 317 317 317 317 318 318 318 318 318 318 318 318 318 317 317 317 316 316 315 314 314 313 313 313 312 312 311 311 311 311 311 311 311 311 311 310 310 311 312 312 311 312 311 311 311 312 312 312 312 312 312 311 310 310 309 309 308 308 310 313 317 321 324 325 325 325 325 324 323 323
321 321 320 319 319 320 319 319 319 319 318 318 318 318 317 317 316 316 317 317 317 317 317 317 318 318 318 318 317 317 317 316 316 315 315 314 313 313 313 312 312 312 311 311 311 311 311 311 310 310 310 311 310 310 311 312 312 312 312 312 313 313 313 313 313 313 312 313 313 313 312 311 310 310 309 308 308 310 313 316 317 319 321 321 320 319 318
320 320 320 320 320 320 319 319 319 319 319 319 318 318 318 318 318 317 317 316 316 317 317 317 317 317 317 317 317 316 316 315 315 314 314 313 313 312 312 312 312 312 311 311 310 310 310 310 310 309 309 310 310 311 312 312 312 312 312 312 313 314 314 314 314 314 313 313 313 314 313 313 312 312 311 311 310 308 308 310 311 313 315 316 317 317 316
320 320 320 320 320 319 320 319 319 319 319 318 318 318 318 318 318 317 317 317 316 316 316 316 316 316 316 316 315 315 315 315 314 313 313 312 312 312 312 312 311 311 311 310 310 310 310 309 309 309 309 309 310 311 311 311 311 310 310 311 312 313 313 314 314 315 315 314 314 314 313 313 313 313 313 313 313 312 310 309 309 310 312 315 319 321 320
319 319 319 319 319 318 319 319 318 319 318 318 318 318 318 317 317 317 316 317 317 316 315 315 315 315 315 314 314 314 314 313 313 313 312 312 312 312 312 312 311 311 311 310 309 309 309 309 309 309 309 310 310 311 311 311 310 310 310 310 310 311 311 312 313 314 314 315 314 314 314 313 313 313 314 315 315 314 314 312 311 311 311 314 318 322 322
319 319 318 318 318 318 318 317 317 317 318 318 318 318 318 318 317 316 316 316 317 317 316 315 314 314 314 314 313 313 313 312 312 312 312 312 312 311 311 311 311 311 310 310 309 308 308 308 308 309 309 310 310 310 310 310 309 309 308 308 308 309 309 310 310 311 312 314 314 314 314 314 313 314 314 315 315 316 316 315 314 313 313 314 317 321 323
318 317 317 317 317 317 317 316 316 316 316 317 317 317 317 317 317 317 317 316 316 317 317 316 315 314 314 313 312 312 312 312 312 312 312 312 312 311 311 311 311 311 310 310 309 308 307 307 308 308 309 309 309 309 309 309 309 308 308 308 308 307 307 308 308 309 309 311 312 313 313 314 314 314 314 314 315 315 316 316 316 315 315 315 316 319 321
317 316 316 315 315 314 314 313 314 314 315 316 316 316 317 317 317 317 317 317 317 317 317 317 316 314 313 313 313 312 313 312 312 312 312 311 311 311 311 312 311 310 310 310 310 308 308 308 308 309 309 309 309 309 309 308 308 308 307 307 307 307 307 307 307 307 307 308 309 310 311 312 313 313 313 314 315 315 316 316 316 316 316 316 316 317 319
315 315 314 313 312 312 312 312 312 313 313 314 315 315 315 316 316 317 317 317 317 317 317 317 317 315 314 313 313 312 312 312 312 312 311 311 311 311 311 311 311 310 310 310 309 308 308 308 309 309 309 309 309 309 308 308 308 307 307 307 306 306 306 306 306 306 306 307 307 308 309 310 311 312 312 313 314 314 315 315 315 315 315 315 316 317 317
313 313 312 312 312 312 312 311 311 311 311 312 312 313 314 315 316 317 317 317 317 317 316 317 317 315 313 313 312 312 312 311 311 311 311 311 311 311 311 311 310 310 310 310 309 308 308 308 309 309 309 308 308 308 308 307 307 307 306 306 306 306 306 306 306 306 306 306 306 307 308 309 309 310 311 312 312 313 313 314 315 315 315 315 315 316 316
313 312 312 311 311 311 311 311 310 310 310 311 311 312 313 314 315 317 317 316 317 317 316 316 315 314 312 312 312 312 311 311 311 311 311 311 311 311 310 310 310 310 310 309 309 308 308 308 308 308 307 307 307 307 307 307 306 306 306 306 305 305 305 305 305 305 305 305 305 306 307 308 308 309 309 310 310 311 311 312 313 314 314 314 314 315 316
312 312 312 312 311 311 311 311 311 310 310 310 311 312 313 313 314 315 316 316 316 317 316 315 314 313 312 312 312 311 311 311 311 311 311 311 310 310 310 310 309 309 309 308 307 307 307 307 306 306 306 306 306 306 306 306 305 305 305 304 304 304 304 304 304 304 304 304 304 304 305 305 306 306 307 308 309 309 309 310 311 311 312 313 314 314 315
312 312 312 312 311 312 312 311 311 311 310 310 311 312 313 313 313 314 315 315 316 317 317 316 314 313 312 312 312 311 312 312 311 311 311 310 309 309 309 309 308 308 307 307 306 306 306 306 305 305 305 305 305 305 305 304 304 304 303 303 303 304 304 304 304 304 303 303 303 303 303 303 304 305 306 307 307 308 308 309 310 310 311 312 313 314 315
312 312 312 311 311 311 311 311 311 311 311 310 311 311 313 314 314 314 315 315 316 316 316 316 315 313 313 312 312 311 311 311 310 310 310 309 308 308 308 308 307 307 306 306 306 305 305 305 305 305 305 305 304 304 304 303 303 302 302 302 302 303 303 303 303 303 303 303 303 302 302 303 304 305 306 306 306 307 308 308 309 309 310 310 311 312 313
310 310 310 310 310 310 310 311 311 310 310 310 310 311 312 314 314 314 315 315 315 315 315 314 313 312 311 311 311 311 310 310 309 309 309 309 308 308 308 307 306 306 305 305 305 304 304 305 304 304 304 304 303 303 303 302 301 301 301 301 302 302 302 302 302 302 302 302 303 303 303 304 304 305 305 305 305 306 307 308 308 309 309 310 310 311 311
309 309 309 309 309 309 309 310 310 310 310 310 310 310 311 313 314 314 314 314 314 314 314 313 312 311 310 310 310 310 309 309 309 309 308 308 308 307 306 305 305 304 304 304 304 304 304 304 303 303 303 302 302 302 301 300 300 300 301 301 301 301 301 301 302 302 302 303 303 304 304 304 303 303 303 304 304 305 305 306 307 308 309 309 309 310 311
308 308 309 309 308 308 309 309 309 309 309 309 310 311 312 312 313 313 313 313 312 312 312 312 312 311 310 309 309 309 309 309 309 308 308 307 307 306 305 304 304 304 304 303 303 303 302 302 302 301 301 300 300 300 300 300 300 300 301 300 300 299 299 300 301 301 301 302 302 303 303 303 302 303 303 303 303 303 304 305 306 307 308 307 308 309 311
308 308 308 309 309 309 308 308 309 309 309 309 310 311 311 311 312 312 312 311 311 311 311 311 310 310 310 309 309 308 308 307 307 307 306 306 305 304 304 303 303 303 302 301 301 301 300 300 299 299 299 299 299 299 300 300 300 300 300 300 300 299 299 299 299 299 300 300 300 300 301 301 301 301 301 301 302 302 303 304 305 306 307 306 307 308 310
307 307 308 308 308 309 308 308 308 308 308 308 309 310 310 310 310 311 311 310 309 309 309 309 309 309 309 308 308 307 307 306 305 305 304 304 303 303 303 302 302 301 300 300 300 299 299 298 298 298 298 298 298 299 299 299 299 299 299 299 299 299 298 298 298 298 298 298 298 298 298 299 299 299 300 300 300 301 301 302 303 304 305 305 306 307 308
307 308 308 308 308 308 309 308 308 308 308 308 309 309 310 309 309 310 310 309 308 308 308 308 309 308 308 307 307 306 305 304 303 303 302 302 302 302 302 302 301 300 299 299 299 299 298 298 298 297 297 298 298 297 297 297 298 298 298 298 298 298 298 298 297 297 297 297 297 297 297 297 297 298 298 299 299 300 301 301 302 303 303 304 304 305 306
308 308 308 308 308 308 308 308 307 307 308 308 309 309 309 309 309 310 309 308 308 308 307 307 307 307 306 306 305 304 303 302 302 302 302 301 302 301 301 301 300 299 299 299 298 298 297 298 297 297 297 297 297 297 296 296 297 297 296 297 297 296 296 296 296 296 296 296 296 296 296 296 296 297 297 297 298 299 299 300 301 302 303 303 304 304 305
308 308 307 307 307 307 307 307 307 307 307 308 308 309 309 309 309 309 309 308 307 307 306 306 306 305 305 304 303 302 302 301 301 301 301 301 301 301 300 299 299 298 298 298 298 297 297 297 297 296 296 296 297 296 296 296 296 296 295 295 295 295 295 295 295 295 295 295 296 295 295 295 295 295 295 295 296 297 298 299 300 301 302 302 303 304 304
308 307 307 307 307 306 306 307 307 307 307 307 308 308 309 309 309 308 308 307 306 306 305 305 304 303 303 302 302 301 301 301 301 301 301 300 300 300 299 298 298 298 298 298 297 297 297 297 296 295 295 296 296 296 296 295 295 295 295 295 295 294 294 294 294 294 295 295 295 294 294 294 293 293 293 293 294 295 296 297 298 299 300 301 302 302 303
307 307 307 307 306 306 307 306 306 307 307 307 307 308 308 308 308 308 307 306 305 304 303 303 302 302 302 301 301 302 302 301 301 301 300 300 299 299 298 298 298 298 298 297 297 297 297 296 296 295 295 295 295 295 295 295 295 295 295 294 294 294 293 293 294 294 294 294 294 294 293 293 293 293 293 293 293 294 295 296 297 297 298 299 300 301 301
307 307 307 307 306 306 306 306 306 307 307 307 307 308 308 308 307 307 306 304 303 302 302 302 302 302 302 302 302 302 302 301 301 301 300 300 299 299 299 299 299 299 298 298 297 297 296 296 296 295 295 295 295 295 295 295 295 295 295 294 294 293 293 293 293 294 294 294 294 293 293 293 293 294 294 293 293 294 294 295 295 296 296 297 298 299 300
307 307 307 306 306 306 306 306 306 306 307 307 308 308 307 306 306 305 303 302 302 302 302 303 302 302 302 302 302 302 302 302 301 301 300 300 300 299 299 300 299 299 298 298 297 297 297 296 296 295 295 295 295 295 295 294 294 294 294 294 294 293 293 293 293 293 293 293 293 293 293 293 293 293 294 294 294 294 294 294 295 295 296 296 297 298 298
306 306 306 306 306 307 307 307 307 307 307 308 308 307 306 306 305 303 302 302 302 303 303 303 303 303 302 302 302 302 302 302 301 300 300 300 300 300 300 300 299 299 298 298 298 297 297 296 296 296 296 296 295 295 295 294 294 293 294 294 294 293 293 293 293 293 293 293 293 293 292 292 293 293 293 293 293 293 294 294 294 294 295 295 296 296 297
306 306 306 306 307 307 307 307 307 307 307 307 306 306 305 304 303 302 303 303 303 303 303 303 303 303 302 302 302 302 301 301 301 300 301 301 301 300 300 300 300 299 299 298 297 297 297 297 296 296 296 296 295 295 295 294 294 293 294 294 293 293 293 293 293 293 293 293 292 292 292 292 292 292 292 292 293 293 293 293 293 293 294 294 294 295 295
305 305 306 306 307 307 307 307 307 306 306 306 305 305 304 303 302 302 303 304 304 303 303 303 303 302 302 302 302 302 301 301 301 301 301 301 301 301 300 300 300 300 299 299 298 297 297 297 296 296 296 296 295 295 295 295 294 293 294 294 294 293 293 293 292 293 293 292 292 292 292 292 292 292 292 292 292 292 292 292 293 293 293 293 293 293 294
305 305 306 306 306 306 306 305 304 304 304 304 304 303 302 302 302 303 304 304 304 304 304 304 303 303 303 302 302 302 302 302 302 301 301 302 301 301 301 301 301 300 300 300 298 297 297 297 296 296 296 295 295 295 295 295 294 293 294 294 294 294 293 293 292 292 293 292 292 292 292 292 292 292 292 292 292 292 292 292 292 292 292 292 292 292 292
Wind_Speed
3 1 4 5 4 3 2 5 8 9 9 3 3 2 2 6 5 5 9 11 12 13 13 12 9 9 10 11 15 17 18 19 18 18 19 19 18 16 15 16 17 18 17 14 12 10 8 10 13 15 14 15 18 22 24 25 27 28 29 30 31 34 36 37 33 31 29 29 29 29 29 28 28 28 27 26 26 25 25 25 25 24 22 21 21 21 20
4 8 9 9 9 6 4 6 8 9 9 3 4 4 4 6 4 8 14 12 7 9 10 9 11 15 17 17 18 18 18 19 18 17 20 20 19 18 17 17 18 18 17 15 13 10 8 8 9 9 10 11 13 17 20 20 21 23 24 26 29 31 35 37 34 29 28 28 28 29 29 28 27 27 26 25 25 25 26 26 26 25 23 22 22 22 21
5 9 10 10 10 6 5 8 10 10 9 5 5 7 7 9 8 9 15 14 6 4 8 13 17 20 20 19 18 17 16 18 19 18 18 20 20 20 19 19 19 19 17 16 15 14 11 8 7 6 6 6 7 10 15 18 19 19 20 22 24 27 29 32 32 30 30 31 30 29 30 31 29 27 26 25 25 25 25 26 25 25 24 23 23 24 23
2 5 8 10 12 7 6 9 13 13 8 3 2 2 3 8 11 11 12 12 6 5 11 16 18 19 19 18 19 19 17 17 19 19 19 19 20 20 20 20 20 19 18 17 17 17 16 12 9 7 5 4 3 3 8 15 17 17 18 18 18 20 23 25 26 26 26 28 29 29 31 32 31 29 28 27 26 26 26 26 26 26 25 24 24 25 26
2 4 6 7 8 6 4 6 10 11 8 2 4 5 3 7 13 11 8 7 7 9 14 15 14 15 17 18 21 23 21 19 20 20 20 20 20 21 21 20 20 19 19 19 18 18 18 16 13 9 6 5 5 6 6 8 9 8 10 13 14 15 17 18 19 21 22 23 25 27 28 30 31 31 29 27 27 28 28 28 28 28 27 27 26 26 27
2 4 5 7 4 2 2 6 7 6 3 6 9 7 7 5 4 5 6 8 9 11 13 14 14 16 19 22 24 26 26 24 22 20 20 20 20 20 20 21 20 20 19 20 19 19 19 19 18 15 11 9 10 11 10 7 4 3 4 8 10 9 12 15 15 17 19 20 20 21 22 23 24 26 27 26 27 29 29 30 30 30 29 29 28 28 28
1 2 6 6 0 3 4 6 6 5 6 10 12 11 11 11 8 9 11 8 8 12 15 19 22 22 23 27 27 27 28 27 25 24 22 20 20 20 20 21 21 20 19 18 18 18 18 18 18 19 17 14 13 14 14 14 12 8 4 5 5 4 6 11 11 11 14 16 16 16 18 18 18 19 20 21 22 24 26 28 29 29 29 29 29 29 29
1 1 4 4 5 5 4 5 4 3 5 5 8 10 11 11 8 8 9 7 7 14 19 22 25 27 27 26 25 26 26 26 26 26 23 21 21 21 21 22 22 21 19 19 18 18 17 16 16 17 17 16 15 14 14 15 15 12 9 6 4 2 0 2 4 5 7 10 11 11 13 15 15 13 13 14 16 18 21 22 24 25 26 27 27 28 29
2 2 1 2 1 3 5 4 2 2 3 2 2 4 5 8 8 6 9 10 9 14 20 22 25 28 25 18 16 21 25 24 25 26 24 23 22 21 21 22 22 21 20 19 19 17 16 16 15 14 13 13 13 13 13 13 14 13 12 11 9 7 6 5 4 3 1 2 4 3 5 7 9 10 10 9 10 13 15 17 19 22 23 25 25 26 28
2 3 2 2 2 1 4 5 5 5 6 2 5 6 2 5 6 7 11 11 9 11 18 22 25 24 17 8 7 17 23 24 26 26 26 25 24 23 23 22 22 20 18 18 17 15 15 15 14 11 9 9 10 11 12 11 11 12 13 13 12 10 9 8 7 6 5 4 2 2 3 2 3 6 8 6 5 7 8 10 13 17 20 21 23 24 25
2 4 3 1 3 3 4 5 7 10 9 2 6 6 1 2 3 8 13 14 13 13 17 21 19 14 7 3 7 18 24 25 26 27 26 25 24 23 23 22 21 19 17 16 15 12 12 13 12 10 8 7 7 9 10 9 9 10 11 10 10 10 10 9 8 8 8 7 6 5 3 4 3 4 5 6 6 6 6 8 10 12 15 16 18 19 21
1 3 1 1 2 3 4 5 6 10 8 3 5 3 3 7 11 14 16 18 16 14 14 14 10 7 7 8 11 20 26 25 25 25 25 23 22 21 20 18 17 16 13 11 10 9 9 10 8 7 6 6 6 6 7 6 6 8 8 7 6 7 8 8 7 6 6 6 6 6 5 4 3 4 4 5 6 7 7 8 9 10 11 12 13 15 17
1 2 1 1 2 3 5 6 9 10 7 4 3 2 6 15 21 20 21 23 20 15 11 8 6 9 17 22 23 25 25 24 24 24 22 20 19 17 17 15 13 12 10 6 4 5 6 6 5 5 5 5 5 5 4 3 4 6 6 4 3 3 4 5 5 4 4 4 4 3 4 5 4 4 4 4 4 5 6 7 8 10 11 12 13 13 14
0 2 2 1 3 3 4 11 13 7 3 1 3 3 9 22 28 25 24 29 29 25 21 15 12 14 22 29 32 29 25 23 22 21 19 18 17 15 14 12 10 8 7 5 2 1 2 3 4 5 6 5 4 4 4 3 3 3 2 1 2 1 0 1 2 3 2 2 3 3 3 4 4 4 6 6 4 2 2 3 4 7 10 12 13 13 14
1 2 3 2 2 3 5 10 9 3 1 4 6 8 10 21 31 31 29 30 32 32 28 20 16 21 28 32 32 30 27 26 23 21 19 18 16 13 11 9 7 5 3 2 0 2 4 6 7 7 7 6 5 5 5 5 4 3 3 3 4 5 4 5 4 3 2 1 2 3 3 4 4 4 4 5 5 4 3 2 3 3 5 6 8 9 11
2 2 0 2 4 5 8 6 1 1 3 5 10 11 10 17 30 34 31 29 30 30 26 22 24 31 35 35 33 31 28 26 24 22 19 16 13 10 7 4 2 1 3 4 5 6 6 7 8 9 9 8 8 7 7 7 7 7 6 6 6 7 7 7 7 5 4 2 3 3 3 2 1 1 1 1 1 2 2 3 3 2 2 2 3 4 6
2 3 4 4 3 7 8 2 6 8 9 9 10 11 12 16 25 32 32 30 29 27 26 28 32 35 36 34 32 30 27 25 22 20 17 13 10 7 4 2 3 5 7 8 9 9 8 7 6 7 8 8 9 8 9 9 10 10 9 9 8 7 8 8 8 7 5 4 4 4 4 3 3 4 5 4 4 3 3 3 3 2 2 2 3 4 5
1 1 2 4 6 9 8 5 7 10 10 10 10 12 14 14 17 25 29 28 27 27 28 31 33 34 34 32 28 25 23 20 18 16 14 12 10 8 6 4 4 6 7 8 10 11 11 10 8 7 6 6 6 7 8 10 11 11 11 10 9 8 7 8 8 8 7 6 6 6 5 5 5 6 6 6 6 6 6 5 4 3 3 4 5 6 7
1 1 5 6 7 10 10 7 7 9 10 9 9 12 14 14 14 20 26 28 29 30 32 32 30 28 27 26 24 21 18 16 14 12 11 10 8 6 5 5 5 6 7 9 11 12 13 13 11 9 7 5 5 5 6 8 9 10 10 10 10 10 9 8 8 8 8 8 8 8 8 7 7 7 7 7 7 7 8 8 7 6 7 7 8 10 10
1 2 6 4 9 11 11 9 7 7 10 10 8 10 14 15 16 19 23 26 28 29 30 29 27 24 21 18 17 17 16 14 13 12 10 8 6 5 6 6 6 6 9 11 12 14 14 14 12 10 9 8 7 7 8 9 9 10 10 10 10 10 10 10 10 9 9 10 10 10 10 10 10 10 10 10 9 8 8 10 10 10 9 10 11 12 14
1 2 4 3 9 9 11 12 10 6 9 13 12 11 12 14 17 20 21 21 22 23 24 25 25 24 22 21 19 17 17 15 14 12 9 8 7 7 6 5 6 8 10 11 12 13 13 13 12 11 10 11 11 12 12 12 12 12 11 11 10 10 10 10 10 10 10 11 11 11 11 11 11 11 11 12 12 11 9 10 11 12 12 12 13 13 14
2 3 1 2 4 3 6 11 11 8 6 11 13 13 13 14 15 16 17 17 17 18 21 23 23 23 24 23 21 19 17 15 13 12 11 10 8 7 6 6 7 9 10 12 13 13 12 13 13 13 13 13 13 13 12 12 11 11 12 12 12 12 11 11 11 11 11 11 12 13 13 13 13 12 12 13 13 14 14 13 12 13 14 15 16 16 14
3 4 2 2 3 4 5 8 9 8 7 7 8 8 9 11 14 15 15 14 15 18 20 21 21 22 23 23 20 18 17 15 14 13 12 11 9 8 8 8 8 9 10 13 13 13 13 13 13 14 14 14 12 11 10 10 11 11 11 12 12 13 13 13 13 13 13 12 13 13 14 14 15 15 14 14 14 15 17 18 17 16 16 16 17 18 17
1 3 4 2 1 3 3 3 3 3 5 5 5 5 5 6 9 14 15 15 15 17 20 21 21 21 22 22 21 19 19 18 17 15 13 11 11 10 10 9 8 9 11 12 13 13 14 14 14 13 12 11 11 10 9 10 11 11 12 12 12 12 13 14 15 16 15 14 14 14 15 15 15 15 16 16 16 16 17 18 19 19 19 18 18 18 18
0 2 4 2 3 4 4 4 5 5 4 3 2 1 3 4 3 6 11 14 17 18 19 21 22 21 21 21 21 20 20 19 18 17 15 14 13 12 10 9 9 10 11 12 13 13 14 14 13 11 10 11 10 9 9 10 11 11 12 13 13 13 13 14 15 16 16 15 15 15 16 16 16 15 15 16 17 17 17 17 17 17 17 16 17 17 18
3 3 4 4 5 5 6 7 8 9 10 12 13 12 10 7 5 3 4 8 14 18 19 19 20 21 21 21 21 22 22 21 20 19 18 16 14 12 11 10 10 10 10 11 12 13 14 14 12 10 10 10 11 10 10 11 12 12 13 14 14 14 14 15 16 16 16 16 16 16 16 16 16 14 13 14 16 17 18 19 17 15 14 14 13 14 16
5 6 7 7 6 5 4 4 5 7 9 12 13 14 16 17 16 11 9 10 12 14 18 20 20 20 22 22 22 22 23 23 22 21 19 17 15 13 11 10 10 10 9 10 12 13 13 11 10 9 9 10 11 12 12 13 14 14 15 15 16 16 16 16 17 18 17 17 17 17 17 17 15 15 14 14 15 15 16 18 19 18 15 14 12 12 13
6 7 7 6 6 5 5 5 6 7 8 9 10 10 12 17 20 18 15 14 15 16 17 20 23 24 23 23 24 24 25 24 23 22 19 17 15 13 12 10 10 9 8 10 12 12 11 10 10 10 10 11 12 13 14 15 16 16 17 17 18 18 17 18 18 19 19 20 20 19 19 19 18 17 17 16 16 15 14 15 16 17 17 15 14 12 12
6 6 6 7 7 7 8 8 9 10 10 10 10 10 10 12 15 16 17 18 20 22 21 20 23 26 27 26 27 27 27 26 24 22 20 19 17 15 12 11 10 9 8 9 11 11 10 11 12 12 12 13 14 14 15 16 17 18 19 19 19 19 19 19 19 19 20 21 21 21 21 21 20 20 19 19 18 16 15 15 15 15 16 16 16 15 14
7 6 6 7 8 9 11 11 11 11 11 12 12 12 12 12 13 15 17 18 20 23 23 22 23 28 31 31 31 30 29 28 25 23 21 19 18 16 14 12 10 9 8 10 11 10 11 12 12 12 13 14 15 16 17 18 19 19 20 20 20 20 20 19 19 20 20 21 22 22 22 22 22 21 20 20 19 18 17 16 15 15 15 15 16 16 16
7 7 7 8 8 9 10 11 12 12 12 13 14 14 14 15 15 16 16 16 16 19 21 22 25 28 33 34 33 31 29 27 25 23 21 20 18 16 14 12 11 10 10 11 10 10 10 11 11 13 14 15 16 18 18 19 20 20 21 21 21 21 21 20 20 20 20 21 21 21 22 22 21 20 19 20 20 20 19 18 18 17 16 16 15 15 16
6 6 6 6 7 8 9 9 10 12 12 13 14 15 15 15 16 17 16 15 15 17 19 21 24 29 34 35 33 31 29 27 25 23 22 20 17 15 13 12 11 10 10 10 11 11 11 11 12 13 15 16 18 19 19 20 21 21 21 22 23 23 23 22 21 21 20 20 20 20 20 20 20 20 20 21 22 21 20 19 19 18 18 18 17 16 15
5 5 6 6 7 9 10 10 11 12 12 13 14 14 15 15 16 17 17 16 15 18 20 21 24 29 33 33 32 31 29 27 25 23 21 19 16 14 12 11 10 10 10 10 10 11 11 12 12 14 16 18 19 19 19 19 20 21 22 23 25 25 25 24 22 22 21 21 20 20 19 19 20 21 22 22 22 22 21 21 20 20 20 20 19 18 16
6 7 8 9 9 10 12 12 13 14 14 15 14 14 14 15 16 17 18 17 16 18 20 22 25 28 29 29 29 30 28 27 26 24 22 20 17 14 11 10 9 9 9 9 10 11 12 13 13 15 17 18 18 18 18 19 20 21 23 25 26 25 25 24 23 22 21 21 21 21 20 20 21 21 20 20 21 22 22 23 23 23 24 23 22 20 18
8 10 11 11 12 13 13 14 15 15 16 16 16 15 14 14 14 15 16 16 16 17 20 23 26 27 27 27 28 28 27 26 25 23 21 17 13 10 10 10 9 9 9 9 10 12 12 12 14 16 16 17 17 18 19 20 21 22 24 25 25 24 24 23 23 22 21 21 21 22 22 21 20 18 18 19 20 20 21 21 22 23 24 25 24 23 21
12 14 15 16 15 15 15 15 16 16 17 17 17 16 15 14 13 12 13 14 15 17 20 23 26 27 27 29 30 29 28 27 24 20 16 13 10 9 9 9 10 10 10 9 10 11 11 12 13 14 16 17 19 20 20 21 22 23 23 24 24 24 23 23 22 20 20 20 19 19 19 18 17 17 18 20 20 20 19 20 21 22 24 25 26 26 25
15 16 17 18 17 17 18 18 17 17 17 17 17 16 16 15 13 12 12 13 14 17 20 21 23 25 28 29 28 26 24 20 17 14 13 12 10 10 10 9 9 10 10 10 10 11 11 11 12 14 16 18 19 20 21 20 20 20 22 23 22 22 20 19 18 17 16 15 15 15 16 16 18 19 21 22 22 22 21 21 22 23 24 25 26 26 26
18 18 18 19 18 18 18 18 18 18 18 18 18 17 16 14 13 13 14 15 15 18 20 20 20 22 26 26 23 20 17 15 13 12 12 11 10 10 10 9 9 9 9 9 9 10 10 12 13 15 17 18 19 20 20 19 18 18 18 18 18 17 15 13 13 13 13 13 13 14 16 18 19 21 22 23 23 24 23 23 22 22 23 24 25 24 24
20 20 19 19 18 19 19 18 17 17 17 17 17 16 15 14 13 15 16 17 17 19 22 22 22 22 23 23 21 19 17 17 16 14 11 10 10 9 8 8 8 7 7 7 8 9 10 12 14 16 16 17 18 18 18 18 17 16 15 15 15 14 11 9 10 11 12 13 13 15 17 19 21 21 22 22 22 23 22 21 20 21 23 24 24 22 21
22 21 20 18 17 17 18 18 18 18 17 16 15 14 14 13 13 14 17 18 18 20 21 21 21 21 21 21 20 18 16 15 14 11 10 9 9 8 8 8 7 5 4 5 6 7 9 11 12 14 14 15 16 17 17 16 15 14 13 13 13 13 12 11 11 11 11 12 14 16 19 21 22 23 23 23 23 24 23 21 20 21 23 23 22 21 20
22 22 21 19 17 16 16 16 17 17 17 16 15 14 13 13 14 16 18 18 19 19 19 19 19 18 18 18 18 16 14 12 10 9 9 9 9 9 9 8 6 2 3 4 4 6 7 8 10 11 11 12 13 13 12 11 11 12 12 12 13 13 14 13 12 10 11 12 15 18 20 20 19 19 20 20 21 23 23 23 23 24 25 25 24 24 23
20 19 18 18 17 16 15 15 16 16 17 17 15 14 13 13 16 18 19 18 18 18 17 16 15 15 16 16 15 13 11 10 9 8 8 7 8 8 7 6 3 1 3 4 4 6 7 7 8 9 9 9 10 10 8 8 9 11 11 11 12 13 13 14 13 12 13 14 15 17 18 17 16 16 18 19 21 23 22 22 23 24 25 25 25 26 26
18 17 16 15 15 15 14 14 15 16 17 17 15 13 12 13 17 20 21 19 17 16 16 15 14 14 15 14 13 11 11 11 12 12 11 10 8 6 4 3 1 1 3 3 4 5 6 7 8 8 8 7 8 8 7 8 9 10 9 9 11 11 11 12 13 13 14 15 16 16 15 14 14 16 19 22 24 24 23 22 23 23 23 23 24 24 24
16 16 15 16 16 16 14 13 14 15 17 17 15 13 13 16 20 24 23 19 16 16 16 15 15 15 14 12 12 13 14 15 15 13 11 10 8 6 4 2 1 3 3 3 3 5 6 6 7 7 6 5 5 7 8 8 9 10 9 9 9 9 9 11 11 12 13 14 15 15 14 13 14 16 19 22 23 22 22 22 23 22 23 24 24 24 24
14 15 15 16 16 15 13 12 12 13 15 16 15 15 17 20 23 25 23 20 17 17 16 15 14 13 13 12 13 13 13 12 11 9 8 7 6 5 4 3 4 5 4 4 5 6 6 6 6 7 7 6 6 8 9 8 9 10 10 9 8 8 9 10 10 11 12 13 14 14 14 14 15 16 18 19 18 18 19 19 20 21 22 23 23 23 24
11 11 12 12 12 12 11 11 11 12 13 13 14 15 17 20 23 25 24 20 16 14 12 12 13 14 14 14 14 13 12 10 9 7 6 6 6 6 6 6 6 7 7 7 6 6 6 6 6 7 7 8 8 9 9 9 10 10 10 9 9 10 11 11 10 11 12 13 13 13 14 14 14 15 16 17 16 16 17 17 19 20 21 21 20 20 21
9 8 8 8 8 8 7 8 10 11 12 13 14 16 18 21 24 23 20 15 12 12 12 12 13 14 14 13 12 11 11 11 10 8 7 7 7 6 6 7 8 8 9 9 8 7 6 6 5 6 7 8 9 10 9 9 10 11 11 10 10 11 12 11 11 12 13 13 13 13 14 14 14 15 16 15 15 16 16 17 18 20 21 21 20 20 21
8 6 6 6 5 4 3 4 7 9 10 13 15 18 21 22 20 18 16 16 16 16 14 13 12 12 12 11 9 7 7 7 8 8 8 6 5 5 5 6 8 9 9 10 9 8 7 6 5 5 6 8 10 11 11 11 12 12 12 10 11 12 12 11 12 14 15 15 14 14 15 14 15 15 15 15 15 15 16 17 18 20 21 21 21 21 21
10 7 4 4 3 2 2 3 5 7 10 13 16 19 21 20 18 18 20 20 18 16 14 13 12 11 11 9 8 7 6 6 6 6 6 6 4 4 5 6 7 8 9 10 10 8 7 6 5 5 7 8 10 13 14 14 14 13 12 10 11 11 11 10 11 13 14 14 14 14 14 14 15 15 16 16 16 15 16 16 17 18 19 20 21 21 21
13 9 6 4 3 2 2 4 6 9 13 17 19 21 20 19 20 23 22 19 16 15 13 12 11 11 10 9 8 7 7 7 6 5 4 4 4 3 3 4 6 7 9 11 11 9 7 5 5 6 7 8 10 13 15 15 15 14 12 11 11 11 10 9 10 12 12 13 14 14 14 15 16 16 17 18 17 16 16 17 17 17 17 18 19 20 20
14 12 9 8 7 5 4 5 8 13 16 17 17 17 18 20 23 23 20 17 15 15 13 12 11 11 10 10 9 7 6 6 6 4 3 2 2 2 3 3 4 4 5 9 10 9 6 5 5 6 7 9 10 12 14 15 15 14 12 12 12 11 11 12 12 12 13 14 15 14 13 15 17 18 18 19 19 18 18 18 18 17 17 17 17 17 18
12 11 9 9 9 9 8 7 8 11 13 13 14 17 19 21 21 19 16 16 16 14 13 12 12 11 9 9 9 7 6 6 6 5 3 1 1 2 1 2 3 3 3 5 8 8 7 6 6 6 8 9 10 11 13 15 15 13 13 13 13 13 13 13 13 12 13 15 16 14 14 15 17 18 18 18 18 18 19 19 19 19 19 17 16 16 16
Wind_Direction
239 2 5 336 343 343 329 342 336 333 336 350 137 174 179 141 143 176 172 158 152 157 156 148 145 143 135 128 124 118 110 103 99 97 98 99 100 101 100 97 94 98 110 128 148 162 177 194 206 214 215 216 221 225 226 228 230 230 230 229 230 231 231 231 230 229 231 235 238 239 236 234 233 233 231 231 230 229 229 231 234 236 237 239 242 243 243
359 18 10 357 3 0 349 359 357 355 352 7 110 95 76 80 102 141 139 132 130 140 144 139 138 137 130 124 121 115 110 108 105 100 99 101 102 100 99 99 98 96 98 105 116 128 147 164 179 195 202 209 220 224 226 230 231 231 234 235 234 234 233 231 231 233 235 236 238 241 242 240 237 235 236 236 234 233 233 232 233 235 237 240 244 245 243
9 16 15 354 349 353 6 4 1 3 359 8 78 100 97 79 77 110 119 116 108 118 128 125 129 131 126 122 119 113 112 113 108 103 101 101 101 101 101 102 100 98 98 97 95 96 104 121 137 144 154 173 196 214 221 226 230 230 232 236 238 237 235 233 234 237 239 237 236 238 243 245 244 240 239 241 242 241 240 239 237 237 237 240 246 250 249
349 10 29 354 331 341 16 4 354 350 338 326 63 99 138 121 119 119 120 127 143 152 134 127 128 129 124 120 118 114 114 113 111 109 108 106 103 102 103 103 99 97 97 97 93 87 87 91 103 110 103 110 139 174 191 202 215 222 221 223 228 229 230 232 235 236 237 238 237 237 239 243 245 244 241 240 243 246 246 245 244 243 243 244 247 252 255
303 333 48 15 337 348 5 342 337 327 307 312 46 13 10 123 133 139 146 150 149 146 140 134 132 130 125 123 123 124 123 117 114 115 115 113 110 106 103 102 101 98 95 94 91 84 79 77 79 83 82 82 78 71 105 166 193 202 198 197 201 210 216 222 230 232 232 235 237 237 238 239 241 243 242 239 239 242 244 244 244 244 245 247 250 253 256
287 301 62 56 14 10 280 306 334 344 3 77 73 41 14 33 86 110 119 129 137 144 144 139 137 135 133 132 131 131 129 124 119 118 118 118 116 111 106 103 102 101 97 95 91 84 77 73 72 75 77 76 74 70 70 79 98 115 166 184 183 187 194 200 212 223 226 229 232 235 237 239 239 240 242 242 238 238 240 242 243 243 243 245 248 251 255
217 298 66 74 287 234 249 290 323 16 57 78 79 56 26 16 33 70 84 102 132 136 135 134 133 132 132 133 133 132 130 126 121 117 116 117 118 116 112 107 105 104 101 99 95 89 83 77 74 74 74 73 73 72 70 69 77 87 113 167 172 171 188 188 186 193 205 210 215 222 228 231 233 233 238 243 242 240 242 243 243 245 245 246 248 250 253
145 29 79 125 223 258 291 296 299 2 26 45 61 47 19 2 11 58 75 66 87 113 121 126 127 126 127 126 128 132 130 123 118 116 116 118 118 117 117 113 109 107 105 101 98 94 89 82 75 73 73 75 75 74 75 76 80 87 93 105 112 81 51 170 149 158 187 195 197 208 219 224 228 230 236 245 247 246 248 249 250 252 252 252 253 254 255
123 113 116 149 195 303 316 313 311 359 324 288 104 75 11 355 5 50 82 69 69 105 118 120 122 124 119 111 120 134 132 124 118 115 116 119 118 118 121 120 115 112 110 108 105 101 95 85 75 69 68 73 78 79 80 84 87 88 88 90 91 88 80 74 79 79 56 209 200 216 229 226 226 225 224 231 237 241 247 250 253 255 256 255 256 257 258
72 94 67 57 99 217 269 273 287 321 321 271 128 105 15 353 30 78 99 91 83 104 118 122 125 123 115 97 127 139 135 131 126 120 117 119 119 119 124 126 123 120 117 114 111 106 98 89 80 72 62 61 74 78 76 82 93 95 93 93 93 91 86 79 72 62 45 30 13 349 333 314 251 223 213 203 203 225 243 250 251 254 255 254 254 254 257
38 91 92 123 165 211 246 257 290 326 336 354 95 79 340 262 116 116 118 113 112 123 133 133 130 124 118 131 148 141 137 136 134 129 125 124 123 123 125 128 127 124 120 116 113 107 97 89 82 76 61 45 57 73 71 74 91 99 95 93 90 87 84 83 80 73 65 61 62 54 23 348 319 270 240 217 205 214 234 248 256 259 258 257 255 252 254
73 99 92 191 202 254 258 248 291 329 345 37 76 46 251 193 164 150 136 128 131 140 142 136 124 113 128 144 146 142 141 140 139 138 134 130 129 127 126 128 127 123 122 118 110 96 85 80 73 66 52 33 34 56 64 64 76 85 86 85 84 84 84 84 86 86 80 74 72 68 57 40 10 329 299 259 235 230 236 246 256 262 264 266 265 260 259
108 94 95 272 262 260 267 286 314 338 6 61 93 250 202 169 167 165 151 144 146 146 140 137 137 136 141 149 151 147 145 143 139 138 137 136 136 135 133 134 135 136 136 129 100 70 62 59 45 28 21 18 23 35 38 36 52 66 70 69 79 90 87 80 73 70 66 56 50 48 46 47 42 17 359 332 278 253 253 260 263 262 263 265 265 265 264
83 124 113 356 294 255 295 318 325 345 30 182 205 179 154 160 168 171 164 159 158 157 161 175 188 171 158 157 158 158 162 161 150 144 147 148 146 144 141 142 145 147 146 143 132 72 5 352 346 345 344 348 2 6 353 353 17 40 36 349 322 326 7 36 27 32 31 17 3 346 353 20 26 16 11 8 1 346 309 296 288 276 269 268 268 269 268
103 61 60 50 239 256 332 335 330 354 75 195 163 127 138 167 173 172 170 170 168 169 175 184 181 167 160 158 159 161 167 169 163 158 162 163 158 154 151 152 155 151 142 136 127 308 306 310 312 312 312 317 325 328 328 333 334 324 307 294 292 294 291 290 306 333 341 316 311 309 322 355 8 3 7 10 10 15 19 8 348 310 279 275 282 283 278
110 86 78 201 223 295 329 331 293 120 103 136 137 125 133 169 177 178 178 179 179 180 183 178 164 159 158 158 160 161 160 161 160 160 164 166 165 165 166 162 153 37 354 353 352 342 323 308 300 296 293 293 294 299 307 311 309 304 297 288 282 284 290 292 296 304 306 287 269 269 283 309 329 143 125 96 351 337 336 332 335 326 284 277 298 297 286
154 174 229 254 317 346 346 34 121 114 113 119 125 128 132 154 176 183 184 185 187 188 185 173 163 160 160 160 163 164 162 161 162 163 165 169 174 187 206 246 312 321 326 332 335 333 330 324 306 293 289 286 283 284 287 289 291 293 293 292 289 286 286 287 288 290 289 276 256 247 248 242 199 178 173 178 195 221 257 279 292 294 276 277 293 302 304
259 171 312 337 16 20 20 65 111 119 125 123 117 119 124 139 167 181 182 182 182 181 176 169 163 162 163 164 165 167 165 164 167 170 173 178 186 198 208 234 276 293 307 316 316 319 326 331 325 310 296 288 282 276 273 276 281 287 291 294 295 292 288 285 283 281 275 263 248 238 233 222 202 195 195 196 202 212 222 231 246 260 265 278 286 288 295
61 59 330 350 33 32 26 51 102 118 122 123 116 112 114 122 147 168 175 174 172 170 167 163 159 158 160 162 164 168 171 174 179 184 190 191 193 201 223 254 274 289 308 317 318 322 327 330 326 312 295 287 285 278 275 276 278 282 287 292 296 296 291 285 281 280 276 267 253 240 232 223 213 209 209 210 214 218 219 220 227 241 260 277 285 285 290
99 241 299 3 75 64 44 55 80 104 118 125 121 116 118 122 132 148 158 162 164 163 162 162 161 160 165 174 178 178 180 187 192 197 204 210 219 241 263 277 292 308 319 324 325 327 328 330 324 307 289 283 283 282 286 287 286 288 290 290 295 300 298 292 285 280 279 277 270 261 250 239 231 228 226 223 222 224 231 237 239 244 256 269 280 286 292
351 282 309 50 90 71 50 58 63 80 127 136 132 132 139 139 139 145 152 158 165 167 168 173 178 178 183 195 201 195 190 190 193 197 207 222 240 256 265 277 294 309 318 323 325 326 326 323 318 304 288 284 285 288 293 296 296 298 297 295 294 297 300 300 295 289 283 280 278 277 273 264 255 249 244 243 239 233 235 246 253 257 262 267 275 282 287
290 242 283 81 112 91 58 65 64 65 121 145 143 143 152 156 158 161 164 169 179 186 186 189 192 191 189 192 196 195 190 191 197 207 219 227 233 241 253 268 283 299 312 317 319 322 320 315 311 304 296 292 292 293 295 297 299 302 303 304 303 301 300 302 304 303 300 294 289 287 285 281 276 266 256 251 249 245 242 242 249 259 265 270 274 277 279
226 211 179 96 118 137 107 79 70 73 97 131 144 146 155 164 170 174 177 182 190 196 195 195 197 196 190 188 192 194 196 203 212 217 221 224 225 231 245 262 279 296 308 313 314 314 310 306 305 303 300 297 296 295 295 298 302 305 308 311 312 311 309 307 306 307 309 307 302 296 291 288 286 280 269 257 249 247 248 247 248 251 256 262 268 271 272
165 179 184 184 200 187 157 110 87 77 81 98 115 124 131 148 168 178 183 186 189 191 191 192 196 199 195 192 196 201 203 206 209 208 208 213 221 230 241 257 279 295 305 310 309 306 304 303 304 302 298 295 296 297 299 302 305 308 311 313 315 316 316 313 310 309 309 308 306 304 301 299 298 296 291 279 263 252 248 249 251 252 252 254 258 262 264
257 191 194 218 248 244 247 256 260 266 269 275 287 160 123 99 114 179 189 189 189 192 193 193 196 203 205 201 201 207 208 205 201 200 202 209 218 230 242 258 279 294 303 308 307 303 302 304 304 299 292 291 294 297 298 301 306 309 310 311 312 314 315 314 312 311 310 307 306 306 308 310 311 311 310 303 292 278 266 259 255 253 252 255 259 261 260
246 238 240 254 258 256 261 266 269 269 261 263 273 272 260 268 297 289 237 220 208 204 205 205 204 207 211 209 208 209 209 204 200 202 208 214 221 232 245 261 279 292 302 311 313 308 304 304 301 294 288 290 295 297 298 299 303 306 308 307 307 307 309 308 306 306 306 305 304 304 307 311 314 316 317 316 311 302 292 285 277 267 257 253 256 262 265
240 246 249 256 264 267 263 257 262 266 259 260 267 266 257 257 261 259 264 272 258 233 219 214 212 209 209 210 209 207 204 202 201 205 212 221 227 235 246 262 278 289 300 313 317 310 303 299 293 288 287 291 294 297 299 301 303 306 306 305 302 301 301 300 299 299 299 298 299 301 303 305 309 311 313 316 317 314 308 303 299 294 282 266 256 262 273
245 251 252 257 263 265 265 266 268 269 267 268 274 272 259 253 252 250 250 259 267 262 242 223 216 214 211 208 207 204 201 201 203 207 212 220 227 234 242 257 271 280 292 310 315 310 299 289 284 285 289 291 293 295 298 301 304 307 307 306 304 302 300 299 299 298 296 294 293 295 298 300 302 303 306 310 312 312 311 308 305 302 297 285 270 264 270
247 251 256 263 269 275 279 281 280 279 275 270 268 270 266 257 253 252 248 246 252 257 254 240 226 221 217 214 211 207 204 204 206 209 213 218 223 230 237 249 260 268 284 303 310 308 297 287 285 288 291 292 293 295 298 301 305 308 309 309 309 307 305 303 302 300 297 295 293 292 292 294 296 297 298 301 302 304 307 308 306 304 302 296 285 274 270
249 254 262 270 277 283 286 286 284 282 278 274 269 266 265 262 257 252 251 251 251 253 252 248 238 226 218 214 214 212 211 210 208 207 211 215 218 223 233 245 253 258 277 296 303 303 297 289 286 287 288 290 293 296 299 303 306 308 310 311 311 310 309 307 305 302 300 298 295 293 292 291 291 293 295 295 295 296 299 302 303 304 305 302 296 288 281
253 259 271 278 281 285 287 288 289 286 283 281 278 272 268 265 262 257 252 250 249 248 248 250 245 231 219 214 213 211 209 206 203 204 209 212 214 218 228 240 248 257 277 294 300 298 292 285 283 283 285 289 293 296 300 304 306 308 310 311 309 308 307 306 306 305 305 302 299 296 294 292 291 292 293 292 290 291 294 296 298 300 303 302 300 297 291
261 267 279 286 288 290 291 293 296 296 293 289 284 279 273 268 265 265 262 254 246 242 242 244 239 226 215 210 208 204 200 199 200 202 205 205 206 212 221 231 243 258 277 290 296 296 291 284 282 284 286 288 292 295 300 303 305 307 308 307 307 307 306 307 308 308 308 307 304 299 294 292 290 290 289 288 289 292 295 297 300 302 303 302 301 301 298
273 289 303 307 305 303 303 305 308 308 305 300 293 286 279 271 264 264 267 263 250 239 237 238 232 218 208 202 200 197 195 195 196 197 198 198 199 205 214 225 239 256 271 283 291 292 288 285 285 286 286 287 291 296 300 302 303 304 304 304 304 305 305 306 307 307 307 308 307 302 297 293 293 292 290 289 291 294 295 295 297 298 297 296 297 298 297
281 290 298 301 301 302 303 306 310 312 311 306 299 293 287 280 271 265 265 264 254 242 234 230 222 211 202 198 197 195 195 197 198 196 195 193 192 197 210 224 240 254 264 275 283 284 284 286 286 283 281 284 289 294 297 299 300 301 302 302 302 302 303 303 304 305 306 305 304 302 300 298 298 297 296 295 294 294 294 294 295 295 294 293 294 294 293
278 285 290 290 289 290 293 297 301 306 308 307 302 299 296 290 278 268 264 263 257 246 236 229 220 209 201 200 201 201 203 205 200 191 188 190 191 201 220 235 247 257 263 271 278 282 283 280 276 274 277 283 288 292 295 298 301 302 301 300 298 298 298 299 302 304 304 303 301 300 300 301 301 301 300 297 294 293 296 298 298 298 297 296 294 292 290
278 283 286 287 286 284 283 285 288 294 299 301 300 299 297 292 283 272 266 263 254 243 234 230 223 213 205 204 206 204 203 202 197 190 194 204 208 213 227 240 249 257 264 273 279 278 271 263 262 268 276 282 288 292 295 298 302 302 300 297 296 296 297 299 301 302 302 301 302 302 302 302 302 301 299 296 295 295 296 298 298 297 297 297 297 296 294
277 279 280 282 282 279 276 276 279 283 288 292 294 293 291 287 280 270 262 255 243 232 226 223 216 203 194 192 194 193 192 195 197 198 203 209 210 218 232 241 248 256 266 269 265 260 257 258 264 272 278 283 288 291 294 298 301 300 298 298 299 301 302 302 301 300 299 301 304 306 305 301 298 296 295 295 294 293 293 294 296 299 300 300 299 299 299
276 277 277 278 277 274 272 272 274 277 280 283 286 287 287 283 271 257 251 248 237 225 218 214 209 198 188 186 191 197 202 210 216 213 210 213 223 233 238 238 243 252 256 250 246 251 260 270 277 281 285 289 292 293 296 298 297 296 298 303 308 312 313 311 308 307 307 306 305 302 298 294 293 294 295 296 295 293 292 294 298 301 300 299 299 301 302
280 279 279 277 274 270 268 266 266 270 274 278 280 282 283 279 265 249 245 245 235 221 212 209 208 206 202 203 207 211 211 215 220 220 219 221 224 226 225 226 230 236 237 240 250 263 272 278 283 287 291 294 296 296 296 294 292 295 304 312 316 319 319 313 308 306 304 303 301 297 291 287 287 290 294 299 300 297 295 297 301 302 299 297 298 302 306
283 282 281 280 277 273 268 264 261 262 266 271 275 276 277 273 258 244 239 232 219 209 205 203 202 202 203 205 206 202 197 199 205 209 210 210 211 212 213 209 205 212 239 259 270 279 285 289 290 292 295 297 297 296 294 291 292 299 309 314 316 318 316 311 309 307 304 301 299 294 290 288 287 287 290 296 299 296 291 290 294 297 299 298 297 297 300
287 285 283 281 278 275 272 267 261 257 258 263 269 273 271 260 243 234 230 219 204 197 198 199 197 195 195 195 195 193 189 190 197 204 208 208 203 198 195 189 184 205 295 300 299 308 314 311 302 298 299 299 296 296 298 300 301 304 308 310 312 313 312 312 313 313 308 305 300 296 295 296 297 296 297 299 298 294 290 287 286 289 292 294 294 294 295
290 288 286 283 281 279 276 270 263 257 256 256 258 262 259 246 233 228 222 209 197 196 201 202 202 201 197 193 191 190 188 189 191 189 185 184 183 179 175 172 177 277 319 323 322 324 325 317 308 306 309 306 303 308 320 328 323 317 315 314 314 313 314 316 317 313 309 308 306 303 303 305 306 304 301 297 293 292 293 294 292 289 288 288 288 290 292
290 287 285 284 284 283 278 268 260 257 256 252 248 248 247 233 221 215 209 201 197 201 204 202 200 199 196 194 194 192 184 176 171 164 157 154 154 155 154 157 173 323 339 341 335 330 327 318 311 313 317 314 314 324 339 343 337 331 326 321 320 321 324 325 324 321 320 318 316 314 314 314 309 301 294 290 288 290 294 297 297 295 293 291 289 288 289
289 286 285 285 286 284 277 264 254 252 254 252 245 239 233 221 210 207 207 207 205 203 202 199 198 196 195 195 192 183 171 163 160 158 156 152 147 141 137 127 51 18 10 356 335 331 330 323 316 319 323 326 331 342 350 348 342 339 336 332 330 334 337 336 333 332 331 329 327 325 323 318 310 302 297 294 293 293 293 294 296 296 294 293 291 290 290
293 291 291 290 286 282 276 264 251 249 254 255 245 230 220 213 206 202 201 200 195 192 194 196 195 189 182 174 168 161 153 148 146 144 142 141 138 133 122 91 55 38 26 3 340 333 334 336 337 342 351 358 357 354 352 346 337 335 336 335 335 344 350 348 343 339 338 338 337 335 331 325 318 312 309 308 308 303 298 297 300 299 296 294 293 293 293
305 300 298 294 287 282 276 260 242 238 244 245 236 225 219 214 206 200 196 192 188 185 185 183 177 169 161 156 153 149 142 136 130 122 116 114 113 109 99 78 57 43 31 16 356 341 337 338 341 351 3 9 5 357 351 344 338 337 339 342 346 351 352 349 346 346 346 346 342 338 336 334 330 325 321 318 314 307 301 300 302 300 296 295 296 296 295
321 313 310 307 301 294 279 249 232 229 229 224 217 211 205 201 198 194 190 182 168 158 158 161 161 159 156 155 154 152 149 146 142 134 121 111 109 104 89 64 47 39 30 18 4 354 348 345 342 347 359 6 4 359 353 349 347 347 348 351 353 351 347 346 349 352 351 348 343 339 338 337 336 335 333 327 318 309 304 303 303 303 300 298 297 297 296
347 332 331 334 329 319 283 229 217 210 205 206 204 196 189 185 183 176 166 154 144 145 154 164 165 162 161 159 155 151 150 150 148 142 135 128 119 105 81 57 44 36 27 16 6 357 351 347 347 354 1 5 6 5 4 2 359 356 353 351 351 351 349 347 348 350 349 347 344 342 340 338 335 335 336 333 325 317 310 303 300 300 300 299 299 299 299
13 8 12 7 0 30 112 149 176 186 191 195 191 181 174 171 166 158 153 149 147 152 163 171 172 168 168 166 161 156 152 146 141 138 137 129 116 99 83 64 51 40 28 17 9 2 352 344 346 358 4 3 3 7 9 8 4 359 355 350 350 354 354 348 341 342 347 348 346 344 345 344 341 340 341 340 335 329 320 312 306 301 299 297 297 298 299
21 22 36 42 33 52 115 147 165 171 174 174 171 166 163 161 158 154 153 153 156 162 169 176 181 183 181 177 171 165 158 151 146 145 143 132 117 105 85 63 50 41 27 17 12 7 358 344 336 343 352 354 356 2 8 8 3 360 358 355 353 355 354 345 337 340 347 350 349 348 350 351 349 348 347 346 343 338 333 328 322 314 308 303 298 296 296
29 32 50 68 75 85 109 141 154 157 159 161 162 161 160 158 154 153 155 161 168 172 176 181 184 185 183 178 177 178 179 175 174 177 174 139 101 89 72 50 37 29 21 15 9 4 359 352 347 350 356 358 357 2 6 5 1 359 0 360 358 358 356 350 345 346 350 352 351 349 346 346 347 346 345 344 343 341 340 339 336 331 327 322 315 309 305
34 40 58 77 89 99 110 122 136 146 155 162 162 159 157 158 159 161 166 174 178 182 187 189 188 187 186 182 178 178 185 192 196 200 199 163 62 47 29 14 6 353 348 358 359 356 354 358 3 6 9 8 6 5 6 3 359 357 358 358 359 1 0 355 350 346 344 345 346 343 338 338 340 339 339 340 341 340 341 343 344 343 341 338 334 332 327